Aledo, IL (61231)

10:18 PM CDT on July 27, 2016 (GMT -0500)
KILALEDO2 | | Change Station

Elev 735 ft 41.20 °N, 90.76 °W | Updated 6 seconds ago

Clear
Clear
80.1 °F
Feels Like 83 °F
N
0.0
Wind Variable Wind from South
Gusts 0.0 mph

Today
High -- | Low -- °F
--% Chance of Precip.
Yesterday
High -- | Low -- °F
Precip. -- in
Pressure 29.91 in
Visibility 10.0 miles
Clouds Clear
Heat Index 83 °F
Dew Point 68 °F
Humidity 68%
Rainfall 0.00 in
Snow Depth Not available.
5:54 AM 8:24 PM
Last Quarter, 37% visible
METAR KMLI 280252Z 15003KT 10SM CLR 24/22 A2992 RMK AO2 SLP128 T02440217 53007
Pressure 29.91 in
Visibility 10.0 miles
Clouds Clear
Heat Index 83 °F
Dew Point 68 °F
Humidity 68%
Rainfall 0.00 in
Snow Depth Not available.
5:54 AM 8:24 PM
Last Quarter, 37% visible
METAR KMLI 280252Z 15003KT 10SM CLR 24/22 A2992 RMK AO2 SLP128 T02440217 53007

10-Day Weather Forecast

Almanac

Astronomy

Jul. 27, 2016 Rise Set
Actual Time
Civil Twilight
Nautical Twilight
Astronomical Twilight
Moon
Length of Visible Light
Length of Day
Tomorrow will be .
, % of the Moon is Illuminated

Today's Extremes

State Highs State Lows

Community

WunderPhotos

Upload Photos

1,928,037 photos uploaded!

WunderBlog® & News

Nearby

Air Quality

  Air Quality AQ Index Pollutant
Not available.

Snow Depth

Station Depth Elevation

Earthquake Activity

City Distance Mag. Time & Date
Minimum magnitude displayed is 2.5.

Coastal Water Temperatures

Place Temperature

Stations

Nearby Weather Stations

Station Location Temp. Windchill Dew Point Humidity Wind Precip. Elev Updated Type
                   

Watches & Warnings

There are currently no watches in effect.